This is the latest recevied weather packets stored in our database for station/object WC4PEM. If no packets are shown the sender has not sent any weather packets the latest 1 day(s).
| Time | Temp. | Humidity | Pressure | Rain* | Wind** | Luminosity | Snow |
|---|---|---|---|---|---|---|---|
| 1778082565 | 30.56° C | 55% | 1016.3 hPa | 0 mm | - | - | - |
| 1778082265 | 30° C | 54% | 1016.4 hPa | 0 mm | - | - | - |
| 1778082048 | 30° C | 55% | 1016.4 hPa | 0 mm | - | - | - |
| 1778081965 | 30° C | 55% | 1016.4 hPa | 0 mm | - | - | - |
| 1778081665 | 30° C | 56% | 1016.4 hPa | 0 mm | - | - | - |
| 1778081065 | 30° C | 55% | 1016.5 hPa | 0 mm | - | - | - |
| 1778080765 | 30° C | 60% | 1016.5 hPa | 0 mm | - | - | - |
| 1778080465 | 30° C | 61% | 1016.5 hPa | 0 mm | - | - | - |
| 1778079865 | 29.44° C | 62% | 1016.5 hPa | 0 mm | - | - | - |
| 1778079565 | 29.44° C | 65% | 1016.4 hPa | 0 mm | - | - | - |
| 1778079265 | 28.89° C | 66% | 1016.4 hPa | 0 mm | - | - | - |
| 1778078365 | 28.89° C | 69% | 1016.6 hPa | 0 mm | - | - | - |
| 1778077765 | 28.33° C | 68% | 1016.7 hPa | 0 mm | - | - | - |
| 1778075665 | 27.22° C | 75% | 1016.5 hPa | 0 mm | - | - | - |
| 1778075484 | 26.67° C | 76% | 1016.5 hPa | 0 mm | - | - | - |
| 1778075065 | 26.67° C | 78% | 1016.6 hPa | 0 mm | - | - | - |
| 1778074877 | 26.67° C | 79% | 1016.6 hPa | 0 mm | - | - | - |
| 1778074765 | 26.67° C | 79% | 1016.6 hPa | 0 mm | - | - | - |
| 1778073265 | 25° C | 82% | 1016.3 hPa | 0 mm | - | - | - |
| 1778071761 | 22.22° C | 88% | 1016 hPa | 0 mm | - | - | - |
| 1778071465 | 23.33° C | 87% | 1016 hPa | 0 mm | - | - | - |
| 1778070026 | 22.22° C | 88% | 1015.9 hPa | 0 mm | - | - | - |
| 1778068579 | 20.56° C | 90% | 1015.7 hPa | 0 mm | - | - | - |
| 1778067303 | 20° C | 91% | 1015.6 hPa | 0 mm | - | - | - |
| 1778065466 | 19.44° C | 91% | 1015.4 hPa | 0 mm | - | - | - |
* Rain latest hour (hover to see other rain measurements)
** Current wind speed in m/s (hover to see current wind gust speed)